Wind_Speed
20 19 18 16 13 12 14 14 14 13 10 10 13 15 16 16 16 16 14 12 12 11 10 10 9 10 11 11 12 13 14 14 14 13 12 11 11 11 11 11 11 10 10 9 8 7 6 5 4
20 19 19 17 14 14 16 16 15 13 10 12 16 18 17 16 17 16 14 14 13 12 12 12 12 12 12 13 14 14 15 15 15 14 13 13 12 12 12 12 12 11 10 10 9 8 7 5 4
21 20 19 17 14 16 17 18 17 13 11 14 19 21 20 18 18 16 14 14 13 13 13 13 13 13 13 14 15 16 16 16 16 16 15 14 14 13 13 13 13 12 11 10 10 9 8 6 5
21 20 19 16 15 18 19 17 16 14 12 14 19 21 21 20 19 16 15 14 14 14 14 14 14 14 15 15 16 17 17 17 17 17 17 16 16 15 14 14 13 13 12 11 10 10 9 7 6
21 21 19 16 16 19 19 17 15 14 13 17 20 22 23 22 19 16 14 15 15 15 15 15 15 15 15 16 17 18 19 19 19 18 18 17 17 17 16 15 15 14 13 12 11 11 10 8 7
21 20 18 16 18 20 20 18 17 15 15 20 23 25 25 22 20 17 15 15 16 15 15 16 15 15 16 16 17 19 19 20 20 20 19 19 18 18 17 17 16 15 14 13 12 12 11 10 8
21 19 18 18 20 22 22 20 17 16 18 22 25 28 27 25 22 19 17 15 15 15 16 17 16 16 16 16 17 18 19 20 21 21 21 20 20 20 19 18 17 16 15 14 13 13 12 11 9
20 19 17 18 21 24 24 19 17 17 19 23 27 29 28 27 24 22 18 15 15 16 17 17 18 17 17 18 18 18 19 21 22 22 22 22 21 21 20 19 18 17 16 15 14 13 13 12 11
19 17 17 19 24 26 25 22 20 21 22 25 27 29 29 29 27 24 21 19 17 17 17 18 19 19 19 20 20 20 19 20 21 22 23 22 22 21 20 19 19 18 17 16 15 14 14 13 12
18 16 17 22 26 26 25 23 22 23 25 26 27 29 30 30 29 26 22 20 19 19 20 20 20 21 22 21 21 21 21 21 22 23 23 23 22 22 21 20 19 18 18 17 16 15 15 14 14
18 17 19 23 24 24 22 21 22 24 26 28 29 29 31 30 29 28 25 22 21 21 22 23 23 23 23 22 22 22 22 23 23 24 24 24 24 23 22 21 21 20 19 18 17 17 16 16 15
18 19 21 23 23 23 22 21 22 25 28 29 31 31 31 30 30 28 27 25 23 22 23 25 25 25 24 24 23 23 24 24 24 25 25 25 25 24 24 23 22 21 20 20 19 19 18 17 16
19 20 22 23 22 22 22 21 24 26 28 30 32 32 33 32 30 30 29 28 25 24 24 26 26 26 26 25 25 24 24 25 25 25 24 25 26 25 24 23 23 22 22 21 20 20 20 18 17
19 20 21 22 21 20 20 21 23 25 28 30 31 32 32 32 32 31 31 30 28 25 24 25 26 26 26 26 25 25 25 26 26 27 26 26 27 26 26 25 24 24 23 23 22 21 20 19 19
17 16 16 16 17 17 19 19 20 21 24 26 29 30 31 32 33 32 32 32 30 29 28 26 27 27 27 26 26 26 26 27 26 26 27 27 27 27 27 27 26 24 24 24 23 21 21 21 21
14 13 13 13 15 15 17 16 17 18 20 23 25 27 29 30 32 33 33 34 32 31 30 29 28 28 28 27 27 28 28 29 27 27 27 27 27 27 28 28 27 25 24 24 24 23 22 21 20
13 13 13 13 13 14 17 16 16 17 19 21 23 25 27 29 30 31 32 32 32 32 31 30 29 28 28 29 29 27 29 28 28 27 27 27 26 27 27 27 27 27 26 24 24 24 22 22 21
14 14 14 13 13 14 15 15 15 16 19 21 23 24 26 28 29 30 31 31 31 32 31 31 30 28 28 30 32 31 28 27 26 26 26 27 27 27 27 27 26 26 25 25 23 23 22 23 23
15 15 14 12 12 14 15 16 17 19 21 23 24 25 26 27 29 29 29 30 30 31 31 30 31 31 31 31 32 32 29 28 28 27 27 27 25 26 25 25 26 24 23 23 23 22 23 24 23
15 15 13 13 14 16 17 19 21 23 24 25 25 26 27 28 28 29 30 30 30 31 31 31 32 32 32 32 32 32 30 29 28 29 27 26 25 23 23 24 23 23 22 21 22 22 22 23 24
14 13 14 15 17 18 21 23 24 25 25 25 25 25 28 29 29 29 29 30 31 31 31 32 32 33 31 30 30 31 32 31 30 28 27 25 25 24 22 20 21 21 21 21 22 23 23 24 25
13 12 14 15 17 19 21 24 24 26 25 26 26 26 27 27 28 29 29 29 30 31 31 31 31 32 31 30 30 30 30 31 30 27 27 26 23 21 21 21 22 21 22 22 23 23 24 24 25
13 13 14 15 17 18 20 23 22 23 24 25 26 26 26 27 29 29 29 30 30 31 30 30 31 31 31 30 30 31 30 29 30 29 28 27 25 22 21 22 22 22 22 23 23 23 24 25 26
13 14 15 16 17 19 19 21 21 22 23 25 26 26 27 28 29 30 30 30 28 29 29 30 29 29 30 31 30 30 31 29 28 28 29 28 26 24 22 21 20 21 21 21 22 23 25 26 27
13 14 15 15 15 17 18 20 20 21 22 23 23 24 26 26 26 27 29 29 27 27 28 28 28 28 28 28 28 29 29 29 29 28 27 26 24 23 23 21 19 20 20 21 22 23 25 25 26
11 13 14 16 16 17 18 19 19 20 19 20 21 23 24 24 25 25 25 25 24 25 25 25 26 26 25 25 27 28 27 26 26 27 26 24 22 21 21 22 21 21 20 21 22 22 23 24 26
13 14 15 16 17 17 17 18 18 19 20 20 20 20 22 22 23 22 21 21 20 21 22 22 24 24 24 24 25 26 25 25 24 26 26 24 22 20 20 21 21 20 20 20 21 22 22 23 24
15 16 16 17 18 18 17 17 18 19 19 19 19 19 19 20 20 19 19 19 19 20 21 21 22 22 23 23 23 23 23 23 22 23 24 24 22 21 21 21 21 20 20 20 19 19 20 21 22
16 16 17 17 18 18 18 18 18 19 19 20 19 18 18 17 17 17 18 19 19 19 21 20 19 20 21 22 22 22 22 22 23 22 22 22 22 22 22 21 20 19 20 20 19 18 18 19 20
16 16 16 17 17 17 18 19 19 19 20 20 19 18 18 17 18 18 19 19 20 19 19 19 18 17 18 19 21 23 22 22 21 22 21 20 20 22 22 21 20 20 20 20 20 19 19 20 20
Wind_Direction
251 250 249 245 237 225 216 212 218 226 232 244 258 266 277 289 298 301 293 283 281 274 265 256 246 246 249 247 245 247 248 249 250 254 259 264 271 280 287 292 295 296 293 294 295 293 289 289 291
248 247 245 241 229 213 210 213 219 228 241 252 260 265 274 286 295 298 290 280 273 268 264 256 251 251 252 251 249 248 248 250 250 254 259 264 269 275 282 288 290 291 290 290 291 288 284 282 283
245 244 242 238 219 204 207 213 222 231 250 262 264 264 272 285 293 290 286 281 273 268 267 259 256 256 255 254 253 251 249 250 253 255 259 262 266 270 275 281 284 285 285 285 286 281 277 275 275
242 241 239 232 211 201 207 214 223 226 245 260 266 270 274 284 290 286 283 278 274 270 265 259 258 259 258 256 255 252 249 250 253 255 257 260 263 265 269 274 277 279 279 279 279 277 272 271 271
240 238 235 224 204 199 203 211 221 228 247 262 265 271 277 283 287 287 285 283 276 269 265 261 259 260 262 258 253 251 251 251 253 255 256 258 260 263 266 269 272 273 273 273 273 272 269 266 266
238 235 229 214 198 193 196 209 222 230 246 260 268 273 277 280 286 285 281 279 277 265 263 260 259 259 259 259 256 252 252 252 251 252 254 257 259 261 263 265 268 269 268 268 269 269 267 263 261
237 232 224 211 198 190 195 207 222 235 243 254 263 270 275 278 280 281 279 274 270 267 266 262 261 257 256 257 256 255 254 253 252 252 252 254 257 259 261 262 265 266 265 265 265 266 265 261 259
235 230 221 212 199 194 200 210 224 234 244 252 259 266 271 275 276 277 274 269 265 266 264 260 258 255 254 255 254 255 255 254 253 253 252 252 254 257 258 259 263 263 261 261 261 262 262 259 256
232 228 219 210 202 203 206 211 221 227 237 247 257 264 269 272 275 275 272 267 261 261 259 259 257 253 252 251 251 252 254 254 253 253 252 253 255 255 256 257 259 260 260 259 257 258 258 257 254
228 220 214 210 208 211 212 215 221 228 233 242 252 261 266 270 272 271 269 264 259 255 252 253 255 253 251 250 250 251 251 252 252 251 251 253 255 255 255 256 258 257 258 257 256 256 256 255 253
223 215 212 212 214 215 216 219 224 231 236 243 251 259 264 267 270 269 266 265 260 253 252 251 250 251 250 248 249 248 248 248 249 249 251 252 253 254 255 256 257 257 257 256 254 254 254 254 254
223 215 215 216 220 222 222 223 226 235 241 247 255 261 266 269 269 270 270 268 264 256 253 250 249 250 249 246 246 247 249 249 249 248 252 253 252 252 253 255 256 256 256 255 253 252 252 253 253
227 223 220 222 226 231 233 232 232 236 243 249 255 260 265 268 269 269 269 269 266 261 256 251 252 248 248 246 247 248 250 250 249 248 252 252 250 250 253 254 256 256 254 252 252 252 250 250 250
232 230 227 226 231 237 241 241 240 239 244 249 253 257 262 266 268 269 271 269 268 266 259 255 250 245 244 244 245 245 246 248 249 250 251 251 249 250 252 253 255 254 251 251 252 251 248 247 249
240 240 235 234 239 244 246 246 248 248 249 251 253 255 258 262 265 267 268 268 267 266 261 256 253 249 246 244 243 243 246 248 248 249 250 251 249 248 249 250 252 252 250 249 250 250 248 247 246
240 239 235 231 236 243 250 250 250 253 254 256 256 256 257 259 261 264 266 268 267 265 261 258 255 252 248 246 244 246 248 246 246 248 250 249 247 248 249 247 248 250 250 248 248 246 246 246 246
228 226 223 225 237 245 254 255 252 259 265 265 264 264 263 262 263 264 265 267 267 267 266 261 258 254 250 247 248 249 249 245 243 246 248 246 247 248 248 245 245 247 249 247 246 244 245 245 248
220 222 223 228 240 250 259 265 265 270 275 274 269 269 269 268 268 268 266 267 268 268 267 265 263 258 252 250 249 247 248 242 241 245 246 246 243 244 246 244 244 246 244 243 244 243 244 246 249
225 232 234 236 249 256 262 270 273 273 273 272 269 269 270 270 272 272 270 269 269 268 266 266 265 263 257 256 250 246 247 246 246 246 246 244 241 241 243 244 246 243 244 242 243 242 242 245 248
231 238 242 240 247 255 258 263 266 268 271 271 270 268 271 272 275 276 273 271 268 268 267 267 263 260 257 254 251 249 248 249 248 248 250 247 243 242 241 240 241 242 243 242 242 245 247 248 251
242 250 250 244 245 252 259 260 266 268 270 270 270 271 273 274 274 276 275 273 270 268 268 267 264 260 258 252 250 250 250 252 252 250 248 244 243 242 240 239 238 242 244 244 247 249 250 253 254
248 256 255 253 256 258 262 266 265 267 269 271 271 272 273 275 277 277 276 274 271 268 268 266 265 263 261 256 251 250 252 254 254 254 251 246 247 243 237 239 241 244 246 247 249 250 251 255 256
248 254 255 260 266 267 267 272 272 270 269 271 272 272 273 275 277 278 276 273 270 268 268 265 265 263 262 259 253 249 253 255 253 253 254 248 247 247 245 244 245 245 244 247 249 251 253 256 258
252 258 260 266 269 270 270 273 275 274 274 273 273 275 275 276 275 273 273 274 269 266 265 266 263 263 261 258 253 250 252 255 255 253 252 250 250 249 250 252 248 245 245 247 248 251 254 256 257
254 262 266 267 272 275 279 279 281 282 284 282 278 279 280 278 277 277 274 274 268 264 264 263 263 263 261 255 252 251 251 252 254 251 251 249 252 252 251 249 245 246 247 249 253 256 254 256 257
258 266 273 279 281 283 285 288 291 291 293 293 286 283 284 281 278 277 273 274 268 265 263 261 263 263 260 256 252 251 251 252 252 251 248 247 250 249 246 245 247 248 250 252 256 259 255 257 259
264 272 279 280 285 288 291 292 295 299 301 300 297 290 288 286 279 277 274 274 270 265 264 264 263 262 260 255 253 252 251 250 248 246 245 245 248 246 246 248 250 248 249 252 256 257 257 257 258
267 273 275 278 284 288 293 297 304 304 307 307 306 301 294 291 286 277 273 274 274 270 268 266 261 260 257 254 250 248 249 248 247 243 242 242 244 246 248 249 248 246 249 256 260 260 262 261 261
266 271 275 281 288 293 299 301 307 310 310 311 309 306 300 298 292 282 281 278 275 272 269 265 259 259 256 251 249 248 248 249 247 242 241 238 241 244 246 250 250 249 253 256 257 261 262 262 264
263 268 274 279 287 293 299 305 308 311 313 315 312 308 306 302 297 289 282 278 275 272 267 261 260 259 254 252 249 248 249 249 246 243 245 243 242 242 244 248 249 250 255 256 258 260 261 263 267
Height
5881 5882 5884 5886 5888 5889 5888 5889 5888 5888 5889 5889 5889 5890 5890 5891 5892 5895 5893 5892 5892 5893 5894 5894 5895 5896 5897 5898 5899 5899 5900 5901 5902 5902 5903 5903 5903 5903 5903 5902 5902 5901 5901 5900 5899 5898 5898 5897 5897
5878 5879 5881 5883 5885 5885 5885 5885 5886 5886 5887 5887 5886 5886 5887 5888 5890 5890 5890 5890 5890 5891 5892 5892 5893 5894 5895 5896 5897 5898 5899 5899 5900 5901 5902 5902 5902 5902 5902 5902 5901 5901 5900 5899 5898 5897 5897 5897 5896
5873 5875 5877 5879 5881 5882 5882 5883 5882 5882 5883 5884 5884 5884 5884 5885 5887 5888 5888 5888 5888 5889 5889 5890 5891 5892 5893 5894 5895 5896 5896 5897 5898 5899 5900 5900 5901 5901 5900 5900 5900 5899 5899 5898 5897 5896 5896 5896 5895
5869 5871 5873 5876 5878 5879 5879 5880 5879 5878 5880 5881 5881 5880 5880 5883 5884 5885 5885 5885 5885 5886 5886 5887 5888 5889 5890 5891 5892 5893 5894 5895 5896 5897 5898 5898 5898 5899 5899 5899 5898 5898 5897 5897 5896 5895 5895 5895 5894
5865 5867 5869 5872 5874 5875 5876 5876 5875 5874 5875 5876 5877 5876 5877 5879 5881 5883 5883 5882 5883 5883 5884 5885 5885 5886 5887 5888 5889 5891 5892 5892 5894 5895 5895 5896 5896 5897 5897 5897 5896 5896 5896 5895 5895 5894 5894 5893 5893
5861 5862 5865 5867 5869 5871 5872 5871 5870 5870 5871 5872 5873 5872 5873 5876 5877 5879 5880 5880 5880 5880 5881 5881 5882 5883 5884 5885 5886 5887 5888 5889 5890 5892 5892 5893 5893 5894 5894 5894 5894 5894 5894 5894 5893 5893 5892 5892 5892
5857 5858 5861 5863 5865 5866 5867 5865 5866 5867 5868 5869 5869 5869 5870 5872 5874 5876 5877 5877 5877 5878 5878 5879 5879 5880 5881 5881 5883 5884 5885 5886 5887 5888 5889 5889 5890 5890 5891 5892 5892 5892 5892 5891 5891 5891 5891 5891 5891
5851 5855 5857 5859 5861 5861 5861 5861 5862 5865 5866 5866 5866 5866 5867 5868 5870 5872 5873 5874 5874 5874 5874 5875 5875 5876 5877 5878 5879 5880 5881 5882 5883 5884 5885 5885 5886 5886 5887 5888 5889 5889 5889 5889 5889 5889 5889 5889 5889
5847 5852 5853 5855 5856 5856 5856 5857 5859 5861 5862 5863 5863 5863 5864 5863 5865 5867 5869 5870 5871 5870 5870 5871 5872 5872 5873 5874 5875 5876 5877 5878 5879 5880 5881 5881 5882 5883 5884 5885 5885 5886 5886 5886 5886 5886 5886 5887 5887
5844 5847 5849 5851 5851 5852 5852 5853 5855 5857 5859 5859 5859 5859 5859 5859 5860 5862 5864 5865 5866 5866 5866 5867 5867 5868 5869 5869 5870 5871 5872 5873 5874 5875 5876 5877 5878 5879 5880 5881 5882 5882 5883 5883 5883 5884 5884 5884 5884
5840 5842 5844 5845 5846 5847 5849 5850 5852 5854 5855 5855 5855 5855 5854 5854 5855 5856 5857 5860 5860 5861 5861 5862 5863 5863 5863 5865 5866 5866 5867 5868 5869 5870 5871 5872 5873 5874 5876 5876 5877 5878 5879 5879 5880 5880 5881 5881 5882
5836 5838 5839 5841 5842 5843 5845 5846 5848 5849 5850 5851 5851 5851 5850 5850 5850 5851 5852 5853 5855 5857 5857 5857 5857 5858 5858 5860 5861 5861 5862 5863 5864 5865 5866 5867 5868 5869 5871 5872 5873 5874 5874 5875 5876 5876 5877 5878 5879
5832 5834 5835 5836 5837 5839 5841 5843 5843 5844 5845 5846 5846 5846 5845 5845 5845 5846 5847 5848 5849 5851 5852 5851 5852 5853 5853 5854 5855 5856 5857 5858 5859 5860 5860 5861 5863 5864 5866 5867 5868 5869 5870 5870 5871 5872 5873 5874 5875
5829 5830 5832 5833 5834 5835 5837 5838 5839 5840 5840 5841 5840 5840 5840 5840 5839 5840 5840 5841 5842 5844 5845 5845 5846 5846 5847 5849 5850 5851 5852 5853 5853 5854 5855 5856 5857 5859 5860 5862 5863 5864 5865 5866 5867 5867 5869 5870 5871
5825 5827 5829 5830 5830 5831 5832 5833 5834 5834 5834 5834 5834 5835 5834 5834 5833 5833 5833 5834 5836 5838 5839 5840 5840 5840 5841 5843 5844 5845 5846 5847 5848 5848 5849 5851 5852 5853 5855 5856 5857 5858 5859 5860 5862 5863 5864 5865 5866
5822 5823 5824 5825 5825 5826 5828 5829 5828 5828 5828 5828 5828 5828 5828 5828 5828 5828 5828 5828 5829 5830 5832 5833 5834 5834 5836 5837 5837 5838 5839 5841 5841 5842 5843 5845 5846 5848 5848 5850 5852 5852 5853 5855 5856 5858 5860 5861 5861
5817 5819 5820 5821 5821 5821 5821 5822 5823 5822 5822 5822 5822 5822 5822 5822 5821 5821 5821 5822 5822 5823 5824 5825 5826 5827 5829 5829 5830 5831 5832 5834 5835 5836 5836 5838 5839 5841 5842 5844 5846 5847 5848 5850 5851 5853 5854 5856 5857
5814 5815 5816 5817 5817 5817 5816 5817 5817 5817 5817 5816 5816 5816 5816 5815 5815 5815 5815 5815 5816 5816 5817 5818 5820 5821 5822 5823 5824 5824 5825 5826 5827 5829 5831 5832 5833 5835 5836 5838 5839 5841 5843 5845 5846 5848 5849 5850 5852
5810 5811 5812 5813 5813 5812 5812 5812 5813 5812 5811 5811 5810 5810 5809 5809 5809 5808 5808 5809 5809 5809 5810 5812 5813 5813 5814 5815 5816 5816 5817 5819 5820 5821 5823 5824 5825 5828 5830 5832 5834 5836 5838 5840 5841 5842 5844 5845 5846
5807 5808 5808 5809 5809 5808 5808 5808 5807 5807 5806 5805 5805 5804 5803 5803 5801 5801 5801 5801 5802 5802 5802 5804 5805 5806 5807 5808 5809 5810 5811 5813 5814 5814 5815 5817 5820 5822 5824 5825 5827 5830 5832 5834 5836 5837 5838 5839 5841
5803 5804 5804 5805 5804 5804 5803 5804 5802 5802 5800 5799 5799 5798 5797 5796 5795 5794 5794 5794 5795 5796 5796 5796 5797 5798 5798 5799 5801 5802 5804 5806 5808 5809 5810 5813 5815 5816 5818 5820 5822 5824 5826 5828 5830 5832 5833 5834 5835
5799 5800 5800 5800 5800 5799 5799 5797 5798 5795 5794 5793 5793 5792 5791 5790 5789 5788 5788 5787 5788 5788 5789 5789 5790 5791 5792 5793 5794 5796 5799 5801 5802 5803 5805 5807 5809 5810 5812 5814 5816 5818 5820 5822 5824 5826 5827 5828 5829
5795 5796 5796 5795 5795 5795 5794 5792 5792 5790 5789 5788 5786 5785 5785 5784 5783 5782 5781 5780 5780 5781 5781 5782 5782 5784 5785 5786 5788 5789 5792 5794 5796 5797 5799 5802 5804 5805 5807 5809 5811 5812 5814 5816 5817 5819 5820 5822 5823
5792 5792 5792 5791 5791 5790 5789 5787 5786 5785 5783 5782 5781 5779 5778 5777 5776 5775 5774 5773 5773 5773 5774 5774 5774 5776 5778 5779 5781 5783 5785 5787 5790 5792 5794 5796 5798 5800 5802 5803 5805 5807 5808 5810 5811 5812 5814 5815 5816
5788 5789 5788 5787 5786 5786 5784 5782 5782 5780 5778 5776 5775 5774 5772 5770 5769 5768 5767 5766 5765 5766 5767 5767 5768 5769 5771 5772 5774 5777 5779 5781 5784 5786 5788 5790 5792 5794 5796 5798 5800 5801 5803 5804 5805 5806 5807 5808 5809
5785 5785 5785 5784 5782 5781 5780 5778 5778 5775 5772 5770 5768 5767 5766 5765 5764 5762 5761 5760 5759 5758 5760 5761 5761 5763 5764 5766 5768 5770 5772 5775 5777 5780 5782 5784 5786 5787 5789 5792 5794 5795 5797 5798 5799 5800 5801 5802 5802
5781 5781 5781 5780 5778 5777 5775 5774 5772 5769 5767 5764 5763 5761 5760 5759 5757 5756 5754 5754 5753 5753 5753 5754 5755 5756 5757 5759 5761 5764 5766 5769 5771 5773 5776 5778 5781 5782 5784 5786 5788 5790 5791 5792 5793 5794 5794 5795 5796
5778 5777 5777 5776 5774 5772 5771 5769 5768 5765 5762 5759 5758 5755 5754 5753 5751 5750 5749 5748 5747 5747 5747 5748 5748 5750 5751 5753 5755 5758 5760 5762 5765 5767 5770 5772 5775 5777 5779 5780 5782 5784 5785 5786 5787 5787 5788 5789 5789
5774 5774 5773 5772 5770 5769 5766 5767 5764 5761 5758 5756 5753 5751 5749 5747 5745 5744 5743 5743 5742 5741 5741 5741 5742 5744 5745 5747 5749 5752 5754 5757 5759 5761 5764 5766 5768 5770 5772 5774 5776 5778 5779 5780 5781 5782 5782 5783 5783
5770 5769 5769 5768 5767 5765 5763 5764 5759 5757 5754 5752 5749 5747 5745 5742 5740 5738 5737 5736 5736 5735 5735 5736 5737 5738 5739 5741 5743 5746 5748 5751 5753 5755 5758 5760 5762 5764 5766 5768 5770 5771 5773 5774 5775 5776 5776 5777 5778